Погода в Глебове

Россия / Ярославская область     58°00′10″N   38°26′52″E
темп.,
°C
ветер,
м/с
пор.,
м/с
влажн.,
%
обл.,
%
осадки,
мм/ч
давл.,
гПа
погр.,
м
14 мая, пт
пт1400:00+11ю39936 0.1 1015277
03:00+9ю3896100 0.1 1017231
06:00+10ю38954 0.0 1017277
09:00+14ююз36725 0.0 1017723
12:00+18ююз465178 0.0 10171486
15:00+20ююз2547100 0.0 10162088
18:00+18юв257419 0.6 1015782
21:00+14юв2694100 2.9 1014121
15 мая, сб
сб1500:00+13юв399522 1.4 1013310
03:00+12в3798100 1.4 1012207
06:00+13вюв389735 0.0 1011285
09:00+18ююв368439 0.3 1010475
12:00+22ююв486546 0.6 10091230
15:00+20ю4878100 2.8 1007901
18:00+19ю598175 4.3 1007441
21:00+14ю310925 5.6 1008181
16 мая, вс
вс1600:00+13ю39955 0.1 1008200
03:00+12ю310965 0.1 1009250
06:00+13ю4109620 0.0 1009383
09:00+16ююз597851 0.0 1010907
12:00+18ююз5871100 0.8 10101374
15:00+18юз587534 2.0 1011971
18:00+17юз488099 0.6 1011756
21:00+14юз399543 1.1 1012244
17 мая, пн
пн1700:00+12юз259834 0.1 1013102
03:00+11зюз22963 0.1 101523
06:00+13ю1291100 0.0 101582
09:00+18ююв236837 0.0 1016535
12:00+21ююв3453100 0.0 10151311
15:00+23юв244996 0.0 10141557
18:00+21юв376482 0.0 1013646
21:00+17в4128592 0.0 1012307
18 мая, вт
вт1800:00+16вюв41391100 0.1 1011309
03:00+15юв3119388 0.1 1010231
06:00+16юв41285100 0.0 1009306
09:00+21юв511599 0.0 1008574
12:00+25юв6104598 0.0 1007987
15:00+26юв61347100 0.0 10071667
18:00+24юв61351100 0.0 10061365
21:00+19ююв51479100 0.5 1006871